STARLINK-30396, 57964

Orbit data source: Space-Track

STARLINK-30396, 57964 is a payload satellite owned by SpaceX/Seattle (US) in LEO that was launched on Sat, 30 Sep 2023 UTC via an FALCON 9 launch vehicle from the Air Force Eastern Test Range (AFETR). Payload-class satellites include a variety of spacecraft equipped with specific instruments for various scientific and technological missions. These include communications satellites like Starlink; space stations such as the ISS; scientific satellites like the Hubble; Earth observation satellites from companies like Planet Labs, Umbra, and HawkEye 360; GPS; miniature CubeSats for education and research; and military/defense satellites.

Loading next visibility...
Identifier
57964, 2023-151A
Orbit
LEO
Country
Flag of USUS
Related business
Manufacturer
SpaceX/Seattle
Mission
Operational Commercial Communications
Bus & Motor
STARLINK V2M, Unknown motor
Mass
730 kg wet, ~700 kg dry
Launch date (UTC)
2023-09-30 (3 years ago)
Launch vehicle
FALCON 9
Launch site
Air Force Eastern Test Range (AFETR)
Object type
Payload
Rocket body
Debris
Shape & HBR
Box + 2 Pan, 17.7 m
Radar Cross Section
33.884 m², Large (>1 m²)

Expand to show TLE details & history
Last TLE update: 1 day ago

TLE from 1 day ago
0 STARLINK-30396
1 57964U 23151A   26175.07838556 -.00002756  00000-0 -90729-4 0  9999
2 57964  43.0031  95.4863 0001342 275.3836  84.6863 15.27559489152034
Epoch: 2026-06-24T01:52Z
TLE epoch observation values (Epoch: 2026-06-24T01:52:52.512Z)
Latitude
0.00002°
Longitude
155.02676°
Altitude
482.801 km
Speed
7.626 km/s
True Right ascension
06h 21m 56s
True Declination
0° 00' 00"
Sunlit
Object was in daylight at epoch
Visualization orbit readout
Latitude
Unknown
Longitude
Unknown
Altitude
Unknown
Speed
Unknown
Apparent Right ascension
Unknown
Apparent Declination
Unknown
Sunlit
N/A
Visualization observer readout
Local Sidereal Time
13:38:31
Azimuth
Unknown
Elevation
Unknown
Doppler factor
Unknown
Orbital elements
Apogee altitude
485.976 km
Perigee altitude
484.134 km
Semi-major axis
6,863.192 km
Eccentricity
0.00013
Inclination
43.0031°
RAAN
95.4863°
Arg. of periapsis
275.3836°
True anomaly
84.70161°
Mean anomaly
84.6863°
Eccentric anomaly
84.69396°
Mean motion
3.81728 °/min
Orbital period
94.31 mins
BSTAR
-0.000090729
Loading maneuver chart data...
Computing Atmospheric mass density...
Loading historical data...
Loading historical data...
Loading historical data...
Loading historical data...
Loading historical data...
Loading historical data...
Loading historical data...

Documentation

Showing up to 5 results
|